Terminal Aerodrome Forecast
Issued by NWS

Home | Current Version | Previous Version | Text Only | Print | Product List | Glossary On
Versions: 1 2 3 4 5 6 7 8 9 10 11 12 13 14 15 16 17 18 19 20 21 22 23
000
FTUS41 KBTV 171700
TAFRUT
TAF
KRUT 171730Z 1718/1818 13012G20KT P6SM SCT250
     FM180100 14010KT P6SM SCT250
     FM181300 16013G20KT P6SM SCT180 BKN250
      AMD LTD TO CLD VIS AND WIND=

USA.gov is the U.S. government's official web portal to all federal, state and local government web resources and services.